CST,Max TemperatureF,Mean TemperatureF,Min TemperatureF,Max Dew PointF,MeanDew PointF,Min DewpointF,Max Humidity, Mean Humidity, Min Humidity, Max Sea Level PressureIn, Mean Sea Level PressureIn, Min Sea Level PressureIn, Max VisibilityMiles, Mean VisibilityMiles, Min VisibilityMiles, Max Wind SpeedMPH, Mean Wind SpeedMPH, Max Gust SpeedMPH,PrecipitationIn, CloudCover, Events, WindDirDegrees
2012-11-1,85,71,57,65,60,53,97,66,34,30.09,30.02,29.98,10,6,0,13,4,15,0.00,0,Fog,280
2012-11-2,85,74,63,68,65,60,100,72,44,30.09,30.04,30.01,10,5,0,14,6,18,0.00,4,Fog,235
2012-11-3,85,73,60,67,63,57,100,70,40,30.15,30.08,30.04,10,5,0,13,4,17,0.00,1,Fog,194
2012-11-4,81,72,63,67,63,61,100,79,58,30.10,30.07,30.04,10,7,0,15,2,21,0.01,2,Fog,3
2012-11-5,78,68,58,65,61,57,100,78,56,30.09,30.02,29.90,10,5,0,25,6,30,0.53,6,Fog-Rain-Thunderstorm,227
2012-11-6,69,59,49,57,52,45,100,71,42,30.10,30.04,29.99,10,5,0,17,5,21,0.00,3,Fog,339
2012-11-7,75,62,48,47,41,29,93,56,19,30.17,30.10,30.04,10,10,9,17,5,23,0.00,0,,347
2012-11-8,70,57,44,52,42,37,89,61,32,30.27,30.20,30.17,10,10,10,8,1,24,0.00,0,,70
2012-11-9,75,60,44,56,49,42,92,69,46,30.24,30.19,30.15,10,9,1,15,4,18,0.00,0,,170
2012-11-10,80,67,53,59,56,52,93,68,42,30.20,30.14,30.10,10,10,10,15,5,22,0.00,2,,137
2012-11-11,79,71,62,68,64,59,97,76,54,30.10,30.07,30.02,10,8,1,22,9,35,0.51,6,Rain,165
2012-11-12,71,58,44,68,51,37,97,71,45,30.41,30.25,30.09,10,9,1,28,13,33,0.00,4,,10
2012-11-13,60,50,39,36,32,26,85,59,32,30.46,30.38,30.32,10,10,8,22,10,28,0.00,0,,22
2012-11-14,63,52,40,36,33,29,79,54,29,30.38,30.32,30.27,10,10,10,18,7,22,0.00,0,,17
2012-11-15,65,51,36,41,35,31,92,60,28,30.33,30.27,30.21,10,10,10,12,5,16,0.00,0,,24
2012-11-16,67,54,41,43,40,37,89,62,34,30.33,30.29,30.24,10,10,9,20,7,26,0.00,0,,16
2012-11-17,70,55,39,44,38,34,85,56,26,30.38,30.32,30.27,10,10,10,13,4,16,0.00,0,,21
2012-11-18,70,55,40,46,39,34,93,60,26,30.34,30.29,30.24,10,10,8,12,2,17,0.00,0,,45
2012-11-19,73,58,42,52,45,39,96,65,33,30.31,30.24,30.18,10,10,6,7,0,14,0.00,0,,65
2012-11-20,76,61,46,52,46,40,93,60,27,30.24,30.18,30.13,10,10,7,10,2,14,0.00,1,,358
2012-11-21,79,64,49,55,49,43,89,60,30,30.25,30.19,30.15,10,10,7,14,4,18,0.00,0,,336
2012-11-22,76,60,43,54,48,41,93,64,35,30.25,30.20,30.16,10,10,7,14,3,20,0.00,0,,0
2012-11-23,78,66,53,57,54,48,93,68,42,30.28,30.23,30.19,10,9,5,16,5,20,0.00,6,,347
2012-11-24,61,50,38,46,36,29,89,60,31,30.35,30.27,30.19,10,10,10,15,7,22,0.00,1,,15
2012-11-25,68,51,34,53,40,33,92,67,42,30.20,30.15,30.07,10,7,0,10,3,13,0.00,0,Fog,169
2012-11-26,75,65,55,64,61,52,93,81,68,30.09,30.05,30.02,10,10,6,16,6,22,0.01,5,,168
2012-11-27,67,56,45,64,55,42,93,85,77,30.33,30.18,30.04,10,8,2,21,9,28,0.44,7,Rain-Thunderstorm,6
2012-11-28,64,53,42,45,42,34,100,67,34,30.45,30.37,30.32,10,5,0,12,6,16,0.00,4,Fog,30
2012-11-29,68,52,36,50,42,34,100,70,39,30.36,30.29,30.22,10,10,5,7,1,10,0.00,0,,109
2012-11-30,74,61,47,56,50,45,96,71,46,30.27,30.22,30.17,10,6,0,7,1,12,0.00,0,Fog,161